EW9515 Weather Reports


Display with metric or nautical units.
time (UTC)temp
F
wind
direction
speed
MPH
gust
MPH
rain 1hr
in
rain 24hr
in
rain mn
in
humidity
%
barometer
mb
20260903075438 0 0 1.0 3.0 0.00 0.00 0.00
20260903074434 0 23 1.0 3.0 0.00 0.00 0.00
20260903073429 0 0 3.0 5.0 0.00 0.00 0.00
20260903072418 0 23 3.0 4.0 0.00 0.00 0.00
20260903071433 0 338 2.0 4.0 0.00 0.00 0.00
20260903070428 0 23 4.0 8.0 0.00 0.00 0.00
20260903065428 0 23 4.0 5.0 0.00 0.00 0.00
20260903064437 0 338 5.0 9.0 0.00 0.00 0.00
20260903063428 0 23 5.0 13.0 0.00 0.00 0.00
20260903062438 0 23 7.0 11.0 0.00 0.00 0.00
20260903061431 0 23 6.0 8.0 0.00 0.00 0.00
20260903060429 0 23 5.0 8.0 0.00 0.00 0.00
20260903055439 0 338 8.0 15.0 0.00 0.00 0.00
20260903054440 0 0 5.0 8.0 0.00 0.00 0.00
20260903053430 0 315 7.0 14.0 0.00 0.00 0.00
20260903052438 0 23 5.0 12.0 0.00 0.00 0.00
20260903051431 0 23 8.0 12.0 0.00 0.00 0.00
20260903050429 0 23 9.0 14.0 0.00 0.00 0.00
20260903045418 0 0 3.0 7.0 0.00 0.00 0.00
20260903044451 0 23 10.0 14.0 0.00 0.00 0.00
20260903043448 0 23 5.0 10.0 0.00 0.00 0.00
20260903042417 0 0 3.0 8.0 0.00 0.00 0.00
20260903041431 0 0 7.0 10.0 0.00 0.00 0.00
20260903040428 0 23 7.0 9.0 0.00 0.00 0.00
20260903035418 0 23 6.0 9.0 0.00 0.00 0.00
20260903034432 0 23 7.0 11.0 0.00 0.00 0.00
20260903033429 0 23 8.0 10.0 0.00 0.00 0.00
20260903032418 0 0 3.0 6.0 0.00 0.00 0.00
20260903031433 0 338 3.0 5.0 0.00 0.00 0.00
20260903030428 0 248 1.0 2.0 0.00 0.00 0.00
20260903025417 0 0 1.0 2.0 0.00 0.00 0.00
20260903024452 0 23 3.0 8.0 0.00 0.00 0.00
20260903023428 0 23 1.0 3.0 0.00 0.00 0.00
20260903022417 0 203 1.0 2.0 0.00 0.00 0.00
20260903021512 0 180 3.0 7.0 0.00 0.00 0.00
20260903020428 0 0 2.0 5.0 0.00 0.00 0.00
20260903015458 0 338 3.0 6.0 0.00 0.00 0.00
20260903014429 0 315 1.0 4.0 0.00 0.00 0.00
20260903013429 0 45 1.0 2.0 0.00 0.00 0.00
20260903012417 0 315 3.0 7.0 0.00 0.00 0.00
20260903011430 0 315 2.0 6.0 0.00 0.00 0.00
20260903010428 0 203 1.0 1.0 0.00 0.00 0.00
20260903005417 0 315 3.0 4.0 0.00 0.00 0.00
20260903004430 0 338 2.0 4.0 0.00 0.00 0.00
20260903003434 0 23 2.0 4.0 0.00 0.00 0.00 1
20260903002437 0 338 2.0 4.0 0.00 0.00 0.00
20260903001429 0 0 4.0 6.0 0.00 0.00 0.00
20260903000428 0 293 2.0 5.0 0.00 0.00 0.00
20260902235418 0 0 2.0 5.0 0.00 0.00 0.00
20260902234430 0 338 3.0 7.0 0.00 0.00 0.00
20260902233427 0 0 3.0 8.0 0.00 0.00 0.00
20260902232417 0 338 5.0 10.0 0.00 0.00 0.00
20260902231437 0 338 3.0 7.0 0.00 0.00 0.00
20260902230454 0 23 1.0 3.0 0.00 0.00 0.00
20260902225417 0 225 3.0 9.0 0.00 0.00 0.00
20260902224429 0 0 2.0 3.0 0.00 0.00 0.00
20260902223428 0 315 3.0 4.0 0.00 0.00 0.00
20260902222422 0 23 3.0 6.0 0.00 0.00 0.00
20260902221448 0 23 2.0 6.0 0.00 0.00 0.00
20260902220433 0 338 2.0 5.0 0.00 0.00 0.00
20260902215417 0 315 1.0 2.0 0.00 0.00 0.00
20260902214430 0 338 1.0 3.0 0.00 0.00 0.00
20260902213428 0 293 1.0 2.0 0.00 0.00 0.00
20260902212417 0 225 2.0 4.0 0.00 0.00 0.00
20260902211434 0 315 1.0 3.0 0.00 0.00 0.00
20260902210433 0 338 4.0 8.0 0.00 0.00 0.00
20260902205417 0 23 7.0 12.0 0.00 0.00 0.00
20260902204450 0 23 5.0 8.0 0.00 0.00 0.00
20260902203428 0 23 5.0 8.0 0.00 0.00 0.00
20260902202417 0 0 7.0 10.0 0.00 0.00 0.00
20260902201429 0 23 6.0 8.0 0.00 0.00 0.00
20260902200428 0 23 5.0 7.0 0.00 0.00 0.00
20260902195417 0 23 3.0 4.0 0.00 0.00 0.00
20260902194429 0 23 3.0 6.0 0.00 0.00 0.00
20260902193427 0 0 4.0 6.0 0.00 0.00 0.00
20260902192457 0 0 2.0 10.0 0.00 0.00 0.00
20260902191431 0 45 2.0 2.0 0.00 0.00 0.00
20260902190447 0 23 3.0 6.0 0.00 0.00 0.00
20260902185417 0 23 2.0 4.0 0.00 0.00 0.00
20260902184431 0 23 2.0 3.0 0.00 0.00 0.00
20260902183427 0 0.0 1.0 0.00 0.00 0.00
20260902182422 0 0.0 0.0 0.00 0.00 0.00
20260902181428 0 23 1.0 1.0 0.00 0.00 0.00
20260902180427 0 0.0 1.0 0.00 0.00 0.00
20260902175417 0 0.0 0.0 0.00 0.00 0.00
20260902174451 0 0.0 0.0 0.00 0.00 0.00
20260902173427 0 0.0 0.0 0.00 0.00 0.00
20260902172419 0 0.0 1.0 0.00 0.00 0.00
20260902171453 0 0.0 0.0 0.00 0.00 0.00
20260902170429 0 0.0 1.0 0.00 0.00 0.00
20260902165419 0 0.0 0.0 0.00 0.00 0.00
20260902164441 0 0.0 0.0 0.00 0.00 0.00
20260902163429 0 0.0 1.0 0.00 0.00 0.00
20260902162459 0 0.0 0.0 0.00 0.00 0.00
20260902161433 0 0.0 1.0 0.00 0.00 0.00
20260902160429 0 0.0 1.0 0.00 0.00 0.00
20260902155418 0 0.0 0.0 0.00 0.00 0.00
20260902154433 0 0.0 0.0 0.00 0.00 0.00
20260902153449 0 0.0 0.0 0.00 0.00 0.00
20260902152459 0 0.0 0.0 0.00 0.00 0.00
20260902151454 0 0.0 1.0 0.00 0.00 0.00
20260902150429 0 0.0 0.0 0.00 0.00 0.00
20260902145418 0 0.0 0.0 0.00 0.00 0.00
20260902144437 0 0.0 0.0 0.00 0.00 0.00
20260902143449 0 0.0 0.0 0.00 0.00 0.00
20260902142458 0 23 1.0 1.0 0.00 0.00 0.00
20260902141455 0 0.0 0.0 0.00 0.00 0.00
20260902140428 0 0.0 0.0 0.00 0.00 0.00
20260902135442 0 0.0 1.0 0.00 0.00 0.00
20260902133432 0 0.0 1.0 0.00 0.00 0.00
20260902132417 0 0.0 0.0 0.00 0.00 0.00
20260902131429 0 23 1.0 2.0 0.00 0.00 0.00
20260902130427 0 0.0 0.0 0.00 0.00 0.00
20260902125422 0 0.0 1.0 0.00 0.00 0.00
20260902124440 0 0.0 0.0 0.00 0.00 0.00
20260902123427 0 0.0 0.0 0.00 0.00 0.00
20260902122422 0 0.0 1.0 0.00 0.00 0.00
20260902121430 0 0.0 1.0 0.00 0.00 0.00
20260902120427 0 0.0 1.0 0.00 0.00 0.00
20260902115417 0 0.0 0.0 0.00 0.00 0.00
20260902114430 0 0.0 0.0 0.00 0.00 0.00
20260902113427 0 0.0 1.0 0.00 0.00 0.00
20260902112421 0 0.0 1.0 0.00 0.00 0.00
20260902111452 0 0.0 1.0 0.00 0.00 0.00
20260902110429 0 0.0 0.0 0.00 0.00 0.00
20260902105502 0 0.0 1.0 0.00 0.00 0.00
20260902104434 0 23 1.0 2.0 0.00 0.00 0.00
20260902103428 0 0.0 1.0 0.00 0.00 0.00
20260902102426 0 0.0 1.0 0.00 0.00 0.00
20260902101428 0 0.0 1.0 0.00 0.00 0.00
20260902100426 0 0.0 0.0 0.00 0.00 0.00
20260902095417 0 0.0 2.0 0.00 0.00 0.00
20260902094432 0 0.0 1.0 0.00 0.00 0.00
20260902092416 0 23 1.0 3.0 0.00 0.00 0.00
20260902091429 0 0.0 0.0 0.00 0.00 0.00
20260902090430 0 23 1.0 2.0 0.00 0.00 0.00
20260902085549 0 0.0 1.0 0.00 0.00 0.00